Location: Newark
(43.4306°N, 0.3089°E)
Time: 22:58:44
(UTC+00:00)

Vanguard 3 - Pass Details

Date: 03 September 2019
Orbit: 508 x 3263 km, 33.4° (Epoch: 22 September)

Event Time Altitude Azimuth Distance (km) Brightness Sun altitude
Rises 16:57:59 0° 269° (W) 5,909 13.4 16.0°
Reaches altitude 10° 17:02:53 10° 262° (W) 4,422 13.8 15.2°
Maximum altitude 17:12:31 36° 203° (SSW) 1,980 9.6 13.4°
Drops below altitude 10° 17:18:22 10° 138° (SE) 2,658 9.5 12.3°
Sets 17:20:37 0° 129° (SE) 3,347 9.9 11.9°
